This demonstration page uses our WeatherBlox Daily Observations layout. Learn more.

Left ArrowRight Arrow

38.83388, -104.82136

Hourly Observations for May 25, 2018

Temp ( °F °C ) Dew Point ( °F °C ) Humidity (%) Winds ( mph kmh ) Pressure ( in mb ) Visibility ( mi km ) Precip ( " mm )
12:10 am 00:10 Clear 61 16 36 2 39 39 SW 15 24 29.64 1004 10 16 0.00 0.00
12:13 am 00:13 Clear 63 17 34 1 34 34 S 15 24 29.63 1003 10 16 0.00 0.00
12:58 am 00:58 Clear 63 17.1 33 0.8 33 33 SSW 7 11 29.65 1004 10 16 0.00 0.00
1:58 am 01:58 Clear 63 17 33 0.7 33 33 SSE 3 6 29.64 1004 10 16 0.00 0.00
2:58 am 02:58 Clear 64 17.8 33 0.5 31 31 SSW 8 13 29.62 1003 10 16 0.00 0.00
3:58 am 03:58 Clear 61 16.1 33 0.8 36 36 Calm 29.62 1003 10 16 0.00 0.00
4:58 am 04:58 Clear 59 15.1 34 0.9 38 38 Calm 29.65 1004 10 16 0.00 0.00
5:58 am 05:58 Sunny 60 15.7 33 0.4 36 36 NW 3 6 29.65 1004 10 16 0.00 0.00
6:58 am 06:58 Sunny 65 18.1 35 1.7 33 33 Calm 29.65 1004 10 16 0.00 0.00
7:58 am 07:58 Sunny 66 18.8 38 3.4 36 36 Calm 29.65 1004 10 16 0.00 0.00
8:58 am 08:58 Sunny 70 21.3 40 4.2 33 33 ESE 6 9 29.64 1004 10 16 0.00 0.00
9:58 am 09:58 Sunny 73 22.6 38 3.1 28 28 SE 8 13 29.63 1003 10 16 0.00 0.00
10:58 am 10:58 Mostly Sunny 77 24.8 30 -1 18 18 SE 15 24 29.61 1003 10 16 0.00 0.00
11:58 am 11:58 Sunny 78 25.5 30 -1.1 17 17 ESE 12 19 29.60 1002 10 16 0.00 0.00
12:58 pm 12:58 Mostly Sunny 80 26.8 27 -3 14 14 E 14 22 29.56 1001 10 16 0.00 0.00
1:09 pm 13:09 Mostly Sunny 82 28 23 -5 11 11 SE 16 26 29.54 1000 10 16 0.00 0.00
1:58 pm 13:58 Mostly Cloudy 80 26.5 20 -6.6 11 11 SE 12 19 29.54 1000 10 16 0.00 0.00
2:58 pm 14:58 Mostly Cloudy 78 25.7 23 -5 13 13 ESE 17 28 29.53 1000 10 16 0.00 0.00
3:58 pm 15:58 Mostly Cloudy 79 26.3 23 -4.9 12 12 SE 15 24 29.51 999 10 16 0.00 0.00
4:58 pm 16:58 Mostly Cloudy 78 25.3 25 -3.7 14 14 ESE 6 9 29.51 999 10 16 0.00 0.00
5:58 pm 17:58 Mostly Cloudy 76 24.7 27 -2.6 16 16 ESE 6 9 29.51 999 10 16 0.00 0.00
6:58 pm 18:58 Mostly Cloudy 77 25 24 -4.7 14 14 SSE 9 15 29.48 998 10 16 0.00 0.00
7:58 pm 19:58 Sunny 75 23.7 27 -2.9 17 17 S 21 33 29.51 999 10 16 0.00 0.00
8:58 pm 20:58 Clear 73 22.7 28 -2 19 19 S 16 26 29.52 1000 10 16 0.00 0.00
9:58 pm 21:58 Clear 71 21.6 37 2.5 28 28 S 14 22 29.54 1000 10 16 0.00 0.00
10:58 pm 22:58 Clear 69 20.4 40 4.7 36 36 SSW 15 24 29.53 1000 10 16 0.00 0.00
11:58 pm 23:58 Clear 67 19.6 42 5.4 40 40 S 9 15 29.52 1000 10 16 0.00 0.00

Powered by AerisWeather